WA6MHA-15 Weather Reports


time (UTC)temp
F
wind
direction
speed
knots
gust
knots
rain 1hr
in
rain 24hr
in
rain mn
in
humidity
%
barometer
mb
20201025143131 58 85 0.0 0.0 0.00 0.00 0.00 97
20201025142722 58 85 0.0 0.0 0.00 0.00 0.00 97
20201025142319 58 85 0.0 0.0 0.00 0.00 0.00 97
20201025140717 58 85 0.0 0.0 0.00 0.00 0.00 97
20201025140313 58 85 0.0 0.0 0.00 0.00 0.00 97
20201025135912 58 85 0.0 0.0 0.00 0.00 0.00 97
20201025135109 58 85 0.0 0.0 0.00 0.00 0.00 97
20201025134307 58 85 0.0 0.0 0.00 0.00 0.00 97
20201025133908 58 85 0.0 0.0 0.00 0.00 0.00 97
20201025133719 59 85 0.0 0.0 0.00 0.00 0.00 97
20201025133514 59 85 0.0 0.0 0.00 0.00 0.00 97
20201025133229 58 85 0.0 0.0 0.00 0.00 0.00 97
20201025133109 58 85 0.0 0.0 0.00 0.00 0.00 97
20201025132704 58 85 0.0 0.0 0.00 0.00 0.00 97
20201025132305 58 85 0.0 0.0 0.00 0.00 0.00 97
20201025131859 58 85 0.0 0.0 0.00 0.00 0.00 97
20201025131609 58 85 0.0 0.0 0.00 0.00 0.00 97
20201025131459 58 85 0.0 0.0 0.00 0.00 0.00 97
20201025131256 58 98 0.9 0.0 0.00 0.00 0.00 97
20201025131057 58 98 0.9 0.0 0.00 0.00 0.00 97
20201025130922 58 45 0.0 0.0 0.00 0.00 0.00 97
20201025130656 58 45 0.0 0.0 0.00 0.00 0.00 97
20201025130305 58 75 0.9 0.0 0.00 0.00 0.00 97
20201025130034 58 133 2.6 0.0 0.00 0.00 0.00 97
20201025125853 58 133 2.6 0.0 0.00 0.00 0.00 97
20201025125454 58 275 0.0 0.0 0.00 0.00 0.00 97
20201025125053 57 275 0.0 0.0 0.00 0.00 0.00 97
20201025124823 57 275 0.0 0.0 0.00 0.00 0.00 97
20201025124651 57 275 0.0 0.0 0.00 0.00 0.00 97
20201025123850 58 275 0.0 0.0 0.00 0.00 0.00 97
20201025123622 58 275 0.0 0.0 0.00 0.00 0.00 97
20201025123446 58 275 0.0 0.0 0.00 0.00 0.00 97
20201025123045 58 275 0.0 0.0 0.00 0.00 0.00 97
20201025122855 58 275 0.0 0.0 0.00 0.00 0.00 97
20201025122647 58 275 0.0 0.0 0.00 0.00 0.00 97
20201025122336 58 275 0.0 0.0 0.00 0.00 0.00 97
20201025122251 58 275 0.0 0.0 0.00 0.00 0.00 97
20201025121842 59 275 0.0 0.0 0.00 0.00 0.00 97
20201025121613 59 275 0.0 0.0 0.00 0.00 0.00 97
20201025121440 59 275 0.0 0.0 0.00 0.00 0.00 97
20201025121213 59 275 0.0 0.0 0.00 0.00 0.00 97
20201025121040 59 275 0.0 0.0 0.00 0.00 0.00 97
20201025115837 59 275 0.0 0.0 0.00 0.00 0.00 97
20201025115641 59 275 0.0 0.0 0.00 0.00 0.00 97
20201025115434 59 275 0.0 0.0 0.00 0.00 0.00 97
20201025115032 59 275 0.0 0.0 0.00 0.00 0.00 97
20201025114230 59 275 0.0 0.0 0.00 0.00 0.00 97
20201025113831 59 275 0.0 0.0 0.00 0.00 0.00 97
20201025113632 59 275 0.0 0.0 0.00 0.00 0.00 97
20201025113427 59 275 0.0 0.0 0.00 0.00 0.00 97
20201025113142 59 275 0.0 0.0 0.00 0.00 0.00 97
20201025113027 59 275 0.0 0.0 0.00 0.00 0.00 97
20201025112909 59 275 0.0 0.0 0.00 0.00 0.00 97
20201025112625 59 275 0.0 0.0 0.00 0.00 0.00 97
20201025112347 59 275 0.0 0.0 0.00 0.00 0.00 97
20201025112226 59 275 0.0 0.0 0.00 0.00 0.00 97
20201025111822 59 275 0.0 0.0 0.00 0.00 0.00 97
20201025111535 59 275 0.0 0.0 0.00 0.00 0.00 97
20201025111435 59 275 0.0 0.0 0.00 0.00 0.00 97
20201025111155 60 275 0.0 0.0 0.00 0.00 0.00 97
20201025111034 60 275 0.0 0.0 0.00 0.00 0.00 97
20201025110826 59 275 0.0 0.0 0.00 0.00 0.00 97
20201025110619 59 275 0.0 0.0 0.00 0.00 0.00 97
20201025110318 59 275 0.0 0.0 0.00 0.00 0.00 97
20201025110218 59 275 0.0 0.0 0.00 0.00 0.00 97
20201025105817 59 26 0.0 0.0 0.00 0.00 0.00 97
20201025105558 59 26 0.0 0.0 0.00 0.00 0.00 97
20201025105416 59 26 0.0 0.0 0.00 0.00 0.00 97
20201025105142 59 52 0.9 0.0 0.00 0.00 0.00 97
20201025105029 59 52 0.9 0.0 0.00 0.00 0.00 97
20201025104345 59 57 0.9 0.0 0.00 0.00 0.00 97
20201025104212 59 57 0.9 0.0 0.00 0.00 0.00 97
20201025103923 59 75 1.7 0.0 0.00 0.00 0.00 97
20201025103810 59 75 1.7 0.0 0.00 0.00 0.00 97
20201025103020 59 53 0.9 0.0 0.00 0.00 0.00 97
20201025102305 59 122 0.9 0.0 0.00 0.00 0.00 97
20201025102207 59 122 0.9 0.0 0.00 0.00 0.00 97
20201025101548 59 163 0.0 0.0 0.00 0.00 0.00 97
20201025101402 59 163 0.0 0.0 0.00 0.00 0.00 97
20201025100838 59 157 0.0 0.0 0.00 0.00 0.00 97
20201025100603 59 157 0.0 0.0 0.00 0.00 0.00 97
20201025095757 59 340 2.6 0.0 0.00 0.00 0.00 97
20201025095526 59 54 0.0 0.0 0.00 0.00 0.00 97
20201025095356 59 54 0.0 0.0 0.00 0.00 0.00 97
20201025095101 58 42 0.0 0.0 0.00 0.00 0.00 97
20201025094957 58 42 0.0 0.0 0.00 0.00 0.00 97
20201025094749 58 68 2.6 0.0 0.00 0.00 0.00 97
20201025094557 58 68 2.6 0.0 0.00 0.00 0.00 97
20201025094159 58 57 0.0 0.0 0.00 0.00 0.00 97
20201025093350 57 57 0.0 0.0 0.00 0.00 0.00 97
20201025093109 58 57 0.0 0.0 0.00 0.00 0.00 97
20201025092951 58 57 0.0 0.0 0.00 0.00 0.00 97
20201025092736 58 57 0.0 0.0 0.00 0.00 0.00 97
20201025092547 58 57 0.0 0.0 0.00 0.00 0.00 97
20201025092148 57 57 0.0 0.0 0.00 0.00 0.00 97
20201025091918 58 57 0.0 0.0 0.00 0.00 0.00 97
20201025091745 58 57 0.0 0.0 0.00 0.00 0.00 97
20201025091626 58 57 0.0 0.0 0.00 0.00 0.00 97
20201025091345 58 57 0.0 0.0 0.00 0.00 0.00 97
20201025091114 58 57 0.0 0.0 0.00 0.00 0.00 97
20201025090944 58 57 0.0 0.0 0.00 0.00 0.00 97
20201025090542 58 57 0.0 0.0 0.00 0.00 0.00 97
20201025090140 59 57 0.0 0.0 0.00 0.00 0.00 97
20201025085744 59 57 0.0 0.0 0.00 0.00 0.00 97
20201025085339 59 57 0.0 0.0 0.00 0.00 0.00 97
20201025084939 59 57 0.0 0.0 0.00 0.00 0.00 97
20201025084724 59 57 0.0 0.0 0.00 0.00 0.00 97
20201025084537 59 57 0.0 0.0 0.00 0.00 0.00 97
20201025083858 59 57 0.0 0.0 0.00 0.00 0.00 97
20201025083733 59 57 0.0 0.0 0.00 0.00 0.00 97
20201025083341 59 57 0.0 0.0 0.00 0.00 0.00 97
20201025083101 59 57 0.0 0.0 0.00 0.00 0.00 97
20201025082930 59 57 0.0 0.0 0.00 0.00 0.00 97
20201025082643 59 57 0.0 0.0 0.00 0.00 0.00 97
20201025082530 59 57 0.0 0.0 0.00 0.00 0.00 97
20201025082132 59 57 0.0 0.0 0.00 0.00 0.00 97
20201025081854 59 57 0.0 0.0 0.00 0.00 0.00 97
20201025081730 59 57 0.0 0.0 0.00 0.00 0.00 97
20201025081328 59 57 0.0 0.0 0.00 0.00 0.00 97
20201025081030 59 57 0.0 0.0 0.00 0.00 0.00 97
20201025080924 59 57 0.0 0.0 0.00 0.00 0.00 97
20201025080741 59 57 0.0 0.0 0.00 0.00 0.00 97
20201025080525 59 57 0.0 0.0 0.00 0.00 0.00 97
20201025075912 59 57 0.0 0.0 0.00 0.00 0.00 97
20201025075721 59 57 0.0 0.0 0.00 0.00 0.00 97
20201025075500 59 57 0.0 0.0 0.00 0.00 0.00 97
20201025075322 59 57 0.0 0.0 0.00 0.00 0.00 97
20201025074918 59 57 0.0 0.0 0.00 0.00 0.00 97
20201025074706 59 57 0.0 0.0 0.00 0.00 0.00 97
20201025074519 59 57 0.0 0.0 0.00 0.00 0.00 97
20201025074116 59 57 0.0 0.0 0.00 0.00 0.00 97
20201025073842 59 57 0.0 0.0 0.00 0.00 0.00 97
20201025073715 59 57 0.0 0.0 0.00 0.00 0.00 97
20201025073317 59 57 0.0 0.0 0.00 0.00 0.00 97
20201025073040 59 57 0.0 0.0 0.00 0.00 0.00 97
20201025072918 59 57 0.0 0.0 0.00 0.00 0.00 97
20201025072512 59 57 0.0 0.0 0.00 0.00 0.00 97
20201025072305 59 57 0.0 0.0 0.00 0.00 0.00 97
20201025072110 59 57 0.0 0.0 0.00 0.00 0.00 97
20201025071903 59 57 0.0 0.0 0.00 0.00 0.00 97
20201025071708 59 57 0.0 0.0 0.00 0.00 0.00 97
20201025071310 59 54 0.0 0.0 0.00 0.00 0.00 97
20201025070908 59 54 0.0 0.0 0.00 0.00 0.00 97
20201025070649 59 54 0.0 0.0 0.00 0.00 0.00 97
20201025070523 59 54 0.0 0.0 0.00 0.00 0.00 97
20201025070111 59 54 0.0 0.0 0.00 0.00 0.00 97
20201025065705 59 54 0.0 0.0 0.00 0.00 0.00 97
20201025065305 59 54 0.0 0.0 0.00 0.00 0.00 97
20201025064900 59 54 0.0 0.0 0.00 0.00 0.00 97
20201025064500 59 54 0.0 0.0 0.00 0.00 0.00 97
20201025063658 59 42 0.9 0.0 0.00 0.00 0.00 97
20201025063255 59 68 0.0 0.0 0.00 0.00 0.00 97
20201025062853 59 68 0.0 0.0 0.00 0.00 0.00 97
20201025062655 59 68 0.0 0.0 0.00 0.00 0.00 97
20201025062452 59 68 0.0 0.0 0.00 0.00 0.00 97
20201025061650 59 143 0.0 0.0 0.00 0.00 0.00 97
20201025061250 59 143 0.0 0.0 0.00 0.00 0.00 97
20201025060851 59 143 0.0 0.0 0.00 0.00 0.00 97
20201025060446 59 143 0.0 0.0 0.00 0.00 0.00 97
20201025055645 60 143 0.0 0.0 0.00 0.00 0.00 97
20201025054841 60 143 0.0 0.0 0.00 0.00 0.00 97
20201025054440 60 143 0.0 0.0 0.00 0.00 0.00 97
20201025054039 60 143 0.0 0.0 0.00 0.00 0.00 97
20201025053638 60 143 0.0 0.0 0.00 0.00 0.00 97
20201025053237 60 143 0.0 0.0 0.00 0.00 0.00 97
20201025052837 60 143 0.0 0.0 0.00 0.00 0.00 97
20201025052435 60 156 0.9 0.0 0.00 0.00 0.00 97
20201025052034 60 147 2.6 0.0 0.00 0.00 0.00 97
20201025051634 60 232 0.0 0.0 0.00 0.00 0.00 97
20201025050829 60 168 2.6 0.0 0.00 0.00 0.00 97
20201025050428 60 147 0.0 0.0 0.00 0.00 0.00 97
20201025050036 60 147 0.0 0.0 0.00 0.00 0.00 97
20201025045846 60 147 0.0 0.0 0.00 0.00 0.00 97
20201025045626 60 147 0.0 0.0 0.00 0.00 0.00 97
20201025045224 60 220 0.9 0.0 0.00 0.00 0.00 97
20201025044824 60 203 0.9 0.0 0.00 0.00 0.00 97
20201025044421 61 165 1.7 0.0 0.00 0.00 0.00 97
20201025044027 61 130 0.0 0.0 0.00 0.00 0.00 97
20201025043619 61 130 0.0 0.0 0.00 0.00 0.00 97
20201025043223 61 135 0.9 0.0 0.00 0.00 0.00 97
20201025042817 61 147 0.9 0.0 0.00 0.00 0.00 97
20201025042416 61 146 1.7 0.0 0.00 0.00 0.00 97
20201025042020 61 132 0.9 0.0 0.00 0.00 0.00 97
20201025041613 61 202 1.7 0.0 0.00 0.00 0.00 97
20201025041213 61 165 1.7 0.0 0.00 0.00 0.00 97
20201025040412 61 244 1.7 0.0 0.00 0.00 0.00 97
20201025040020 61 206 0.9 0.0 0.00 0.00 0.00 97
20201025035606 61 246 0.0 0.0 0.00 0.00 0.00 97
20201025035208 61 241 0.0 0.0 0.00 0.00 0.00 97
20201025034804 61 260 0.0 0.0 0.00 0.00 0.00 97
20201025034406 61 167 0.0 0.0 0.00 0.00 0.00 97
20201025034007 61 217 1.7 0.0 0.00 0.00 0.00 97
20201025033600 61 181 0.9 0.0 0.00 0.00 0.00 97
20201025033211 61 147 1.7 0.0 0.00 0.00 0.00 97
20201025033052 61 136 0.9 0.0 0.00 0.00 0.00 97
20201025032800 61 136 0.9 0.0 0.00 0.00 0.00 97
20201025032357 61 130 0.0 0.0 0.00 0.00 0.00 97
20201025031958 61 174 0.9 0.0 0.00 0.00 0.00 97
20201025031554 61 250 0.9 0.0 0.00 0.00 0.00 97
20201025031154 61 234 0.9 0.0 0.00 0.00 0.00 97
20201025030351 61 225 0.9 0.0 0.00 0.00 0.00 97
20201025025949 61 182 0.9 0.0 0.00 0.00 0.00 97
20201025025148 61 201 0.9 0.0 0.00 0.00 0.00 97
20201025024749 61 174 0.9 0.0 0.00 0.00 0.00 97
20201025024350 61 208 3.5 0.0 0.00 0.00 0.00 97
20201025023942 61 188 0.0 0.0 0.00 0.00 0.00 97
20201025023542 61 130 0.9 0.0 0.00 0.00 0.00 97
20201025023142 62 160 1.7 0.0 0.00 0.00 0.00 97
20201025022739 62 230 0.9 0.0 0.00 0.00 0.00 97
20201025021936 62 213 0.0 0.0 0.00 0.00 0.00 97
20201025021535 62 171 0.0 0.0 0.00 0.00 0.00 97
20201025021135 62 205 0.0 0.0 0.00 0.00 0.00 97
20201025020734 62 244 2.6 0.0 0.00 0.00 0.00 97
20201025020332 62 181 1.7 0.0 0.00 0.00 0.00 97
20201025015936 62 177 0.9 0.0 0.00 0.00 0.00 97
20201025015529 62 116 0.0 0.0 0.00 0.00 0.00 97
20201025015130 62 182 0.9 0.0 0.00 0.00 0.00 97
20201025014726 62 203 0.9 0.0 0.00 0.00 0.00 97
20201025014326 62 250 3.5 0.0 0.00 0.00 0.00 97
20201025013927 62 227 0.9 0.0 0.00 0.00 0.00 97
20201025013121 63 125 0.9 0.0 0.00 0.00 0.00 97
20201025012720 63 192 1.7 0.0 0.00 0.00 0.00 97
20201025012319 63 39 0.0 0.0 0.00 0.00 0.00 97
20201025011917 63 261 0.0 0.0 0.00 0.00 0.00 97
20201025011517 63 292 0.0 0.0 0.00 0.00 0.00 97
20201025011117 63 292 0.0 0.0 0.00 0.00 0.00 97
20201025010714 63 352 0.0 0.0 0.00 0.00 0.00 97
20201025005109 64 199 0.0 0.0 0.00 0.00 0.00 97
20201025004708 64 143 0.0 0.0 0.00 0.00 0.00 97
20201025004306 64 300 0.0 0.0 0.00 0.00 0.00 97
20201025003911 65 71 1.7 0.0 0.00 0.00 0.00 97
20201025003509 65 303 0.9 0.0 0.00 0.00 0.00 97
20201025003102 65 171 0.0 0.0 0.00 0.00 0.00 97
20201025002701 65 317 0.0 0.0 0.00 0.00 0.00 97
20201025002301 65 154 0.9 0.0 0.00 0.00 0.00 97
20201025001905 64 233 3.5 0.0 0.00 0.00 0.00 97
20201025001459 65 180 4.3 0.0 0.00 0.00 0.00 97
20201025001056 65 151 4.3 0.0 0.00 0.00 0.00 97
20201025000655 65 257 1.7 0.0 0.00 0.00 0.00 97
20201025000254 65 7 0.9 0.0 0.00 0.00 0.00 97
20201024235853 65 291 0.9 0.0 0.00 0.00 0.00 97
20201024235453 65 133 3.5 0.0 0.00 0.00 0.00 97
20201024235051 65 154 0.9 0.0 0.00 0.00 0.00 97
20201024234648 65 191 3.5 0.0 0.00 0.00 0.00 97
20201024234250 65 286 0.9 0.0 0.00 0.00 0.00 97
20201024233846 65 140 0.0 0.0 0.00 0.00 0.00 97
20201024233446 65 199 1.7 0.0 0.00 0.00 0.00 97
20201024233044 65 241 1.7 0.0 0.00 0.00 0.00 97
20201024232642 65 234 2.6 0.0 0.00 0.00 0.00 97
20201024232242 65 257 3.5 0.0 0.00 0.00 0.00 97
20201024231840 65 167 2.6 0.0 0.00 0.00 0.00 97
20201024231439 65 253 6.1 0.0 0.00 0.00 0.00 97
20201024231038 65 329 2.6 0.0 0.00 0.00 0.00 97
20201024230639 65 36 0.0 0.0 0.00 0.00 0.00 97
20201024230236 65 181 2.6 0.0 0.00 0.00 0.00 97
20201024225836 65 194 1.7 0.0 0.00 0.00 0.00 97
20201024225434 65 288 1.7 0.0 0.00 0.00 0.00 97
20201024225031 65 42 0.0 0.0 0.00 0.00 0.00 97
20201024224633 66 174 1.7 0.0 0.00 0.00 0.00 97
20201024224231 66 277 2.6 0.0 0.00 0.00 0.00 97
20201024223828 66 306 3.5 0.0 0.00 0.00 0.00 97
20201024223429 66 336 3.5 0.0 0.00 0.00 0.00 97
20201024222623 66 52 0.0 0.0 0.00 0.00 0.00 97
20201024222227 66 330 1.7 0.0 0.00 0.00 0.00 97
20201024221825 66 305 0.9 0.0 0.00 0.00 0.00 97
20201024221420 66 185 1.7 0.0 0.00 0.00 0.00 97
20201024221021 66 25 0.0 0.0 0.00 0.00 0.00 97
20201024220618 66 322 0.9 0.0 0.00 0.00 0.00 97
20201024215815 66 184 0.0 0.0 0.00 0.00 0.00 97
20201024215413 66 319 2.6 0.0 0.00 0.00 0.00 97
20201024215021 65 303 4.3 0.0 0.00 0.00 0.00 97
20201024214610 65 300 3.5 0.0 0.00 0.00 0.00 97
20201024214210 65 237 2.6 0.0 0.00 0.00 0.00 97
20201024213808 65 4 0.0 0.0 0.00 0.00 0.00 97
20201024213409 66 337 0.9 0.0 0.00 0.00 0.00 97
20201024213020 66 75 1.7 0.0 0.00 0.00 0.00 97
20201024212205 66 296 2.6 0.0 0.00 0.00 0.00 97
20201024211807 66 296 0.9 0.0 0.00 0.00 0.00 97
20201024211400 66 315 3.5 0.0 0.00 0.00 0.00 97
20201024211000 66 303 0.9 0.0 0.00 0.00 0.00 97
20201024210158 66 330 0.0 0.0 0.00 0.00 0.00 97
20201024205800 66 171 0.9 0.0 0.00 0.00 0.00 97
20201024205354 66 205 0.0 0.0 0.00 0.00 0.00 97
20201024204552 67 291 1.7 0.0 0.00 0.00 0.00 97
20201024204151 67 324 4.3 0.0 0.00 0.00 0.00 97
20201024203749 67 350 2.6 0.0 0.00 0.00 0.00 97
20201024203357 67 154 2.6 0.0 0.00 0.00 0.00 97
20201024202948 67 323 0.0 0.0 0.00 0.00 0.00 97
20201024202145 66 225 3.5 0.0 0.00 0.00 0.00 97
20201024201746 66 298 2.6 0.0 0.00 0.00 0.00 97
20201024201345 66 341 0.0 0.0 0.00 0.00 0.00 97
20201024200942 66 341 0.9 0.0 0.00 0.00 0.00 97
20201024200540 66 99 0.0 0.0 0.00 0.00 0.00 97
20201024200139 66 233 0.0 0.0 0.00 0.00 0.00 97
20201024195736 66 175 0.0 0.0 0.00 0.00 0.00 97
20201024195339 66 244 0.0 0.0 0.00 0.00 0.00 97
20201024194937 66 274 1.7 0.0 0.00 0.00 0.00 97
20201024194533 66 336 3.5 0.0 0.00 0.00 0.00 97
20201024194133 66 268 1.7 0.0 0.00 0.00 0.00 97
20201024193329 66 341 1.7 0.0 0.00 0.00 0.00 97
20201024192930 66 302 3.5 0.0 0.00 0.00 0.00 97
20201024192528 66 1 0.9 0.0 0.00 0.00 0.00 97
20201024192125 66 282 2.6 0.0 0.00 0.00 0.00 97
20201024191725 66 309 0.0 0.0 0.00 0.00 0.00 97
20201024191323 66 267 2.6 0.0 0.00 0.00 0.00 97
20201024190923 65 302 3.5 0.0 0.00 0.00 0.00 97
20201024190119 65 319 0.9 0.0 0.00 0.00 0.00 97
20201024185718 65 329 4.3 0.0 0.00 0.00 0.00 97
20201024185325 65 275 2.6 0.0 0.00 0.00 0.00 97
20201024184916 65 289 3.5 0.0 0.00 0.00 0.00 97
20201024184122 65 341 0.0 0.0 0.00 0.00 0.00 97
20201024183711 65 254 0.9 0.0 0.00 0.00 0.00 97
20201024183311 65 329 0.9 0.0 0.00 0.00 0.00 97
20201024182915 65 313 2.6 0.0 0.00 0.00 0.00 97
20201024182112 65 341 2.6 0.0 0.00 0.00 0.00 97
20201024181705 65 300 2.6 0.0 0.00 0.00 0.00 97
20201024181304 65 292 4.3 0.0 0.00 0.00 0.00 97
20201024180903 65 260 2.6 0.0 0.00 0.00 0.00 97
20201024180105 65 315 1.7 0.0 0.00 0.00 0.00 97
20201024175305 64 350 0.0 0.0 0.00 0.00 0.00 97
20201024174857 64 296 3.5 0.0 0.00 0.00 0.00 97
20201024174459 64 326 0.0 0.0 0.00 0.00 0.00 97
20201024174055 64 184 0.0 0.0 0.00 0.00 0.00 97
20201024173656 64 291 0.9 0.0 0.00 0.00 0.00 97
20201024173252 63 307 0.9 0.0 0.00 0.00 0.00 97
20201024172850 63 258 0.9 0.0 0.00 0.00 0.00 97
20201024172450 63 293 0.0 0.0 0.00 0.00 0.00 97
20201024172051 63 293 0.0 0.0 0.00 0.00 0.00 97
20201024171646 63 305 0.9 0.0 0.00 0.00 0.00 97
20201024171246 63 319 0.9 0.0 0.00 0.00 0.00 97
20201024170844 63 247 0.0 0.0 0.00 0.00 0.00 97
20201024170442 63 247 0.9 0.0 0.00 0.00 0.00 97
20201024170043 63 281 1.7 0.0 0.00 0.00 0.00 97
20201024165640 63 12 0.0 0.0 0.00 0.00 0.00 97
20201024165244 63 302 2.6 0.0 0.00 0.00 0.00 97
20201024164838 63 309 2.6 0.0 0.00 0.00 0.00 97
20201024164538 63 323 1.7 0.0 0.00 0.00 0.00 97
20201024164437 63 323 1.7 0.0 0.00 0.00 0.00 97
20201024164038 63 291 2.6 0.0 0.00 0.00 0.00 97
20201024163634 63 240 0.0 0.0 0.00 0.00 0.00 97
20201024163233 63 309 1.7 0.0 0.00 0.00 0.00 97
20201024162831 63 271 1.7 0.0 0.00 0.00 0.00 97
20201024162435 62 341 0.0 0.0 0.00 0.00 0.00 97
20201024162041 62 309 0.0 0.0 0.00 0.00 0.00 97
20201024161627 62 305 0.9 0.0 0.00 0.00 0.00 97
20201024161229 62 305 0.0 0.0 0.00 0.00 0.00 97
20201024160825 62 305 0.0 0.0 0.00 0.00 0.00 97
20201024160427 62 305 0.0 0.0 0.00 0.00 0.00 97
20201024160024 62 351 1.7 0.0 0.00 0.00 0.00 97
20201024155224 62 312 1.7 0.0 0.00 0.00 0.00 97
20201024154421 62 4 0.0 0.0 0.00 0.00 0.00 97
20201024153616 62 22 0.0 0.0 0.00 0.00 0.00 97
20201024152814 62 331 0.0 0.0 0.00 0.00 0.00 97
20201024152010 62 258 0.0 0.0 0.00 0.00 0.00 97
20201024151617 61 310 0.0 0.0 0.00 0.00 0.00 97
20201024151321 62 310 0.0 0.0 0.00 0.00 0.00 97
20201024150808 61 310 0.0 0.0 0.00 0.00 0.00 97
20201024150406 61 310 0.0 0.0 0.00 0.00 0.00 97
20201024150019 61 310 0.0 0.0 0.00 0.00 0.00 97
20201024145201 61 310 0.0 0.0 0.00 0.00 0.00 97
20201024144801 61 310 0.0 0.0 0.00 0.00 0.00 97
20201024144400 61 310 0.0 0.0 0.00 0.00 0.00 97
20201024143958 61 310 0.0 0.0 0.00 0.00 0.00 97
20201024143557 61 310 0.0 0.0 0.00 0.00 0.00 97